This demonstration page uses our WeatherBlox Daily Observations layout. Learn more.

Left ArrowRight Arrow

39.01783, -85.05884

Hourly Observations for December 3, 2016

Temp ( °F °C ) Dew Point ( °F °C ) Humidity (%) Winds ( mph kmh ) Pressure ( in mb ) Visibility ( mi km ) Precip ( " mm )
12:52 am 00:52 Cloudy 37 2.8 34 1.1 89 89 NW 7 11 30.32 1027 9 14 N/A
1:18 am 01:18 Cloudy 37 3 36 2 93 93 WNW 7 11 30.36 1028 8 13 N/A
1:30 am 01:30 Cloudy with Drizzle 37 3 36 2 93 93 N N/A 30.36 1028 5 8 N/A
2:34 am 02:34 Cloudy 37 2.8 35 1.7 93 93 N N/A 30.39 1029 8 13 N/A
2:52 am 02:52 Cloudy 37 2.8 35 1.7 93 93 N N/A 30.32 1027 7 11 N/A
3:52 am 03:52 Cloudy 36 2.2 35 1.7 97 97 N N/A 30.33 1027 9 14 N/A
4:52 am 04:52 Cloudy 36 2.2 34 1.1 93 93 W 6 9 30.34 1027 10 16 N/A
5:52 am 05:52 Cloudy 36 2.2 34 1.1 93 93 SW 3 6 30.34 1028 10 16 N/A
6:52 am 06:52 Cloudy 36 2.2 34 1.1 93 93 W 5 7 30.34 1027 10 16 N/A
7:52 am 07:52 Cloudy 37 2.8 34 1.1 89 89 W 5 7 30.35 1028 10 16 N/A
8:52 am 08:52 Cloudy 37 2.8 34 1.1 89 89 N N/A 30.37 1028 9 14 N/A
9:52 am 09:52 Cloudy 38 3.3 34 1.1 86 86 N N/A 30.38 1029 9 14 N/A
10:52 am 10:52 Cloudy 39 3.9 32 undefined 76 76 N N/A 30.35 1028 10 16 N/A
11:52 am 11:52 Cloudy 40 4.4 31 -0.6 70 70 N N/A 30.35 1028 10 16 N/A
12:52 pm 12:52 Cloudy 40 4.4 30 -1.1 68 68 N N/A 30.34 1027 10 16 N/A
1:52 pm 13:52 Cloudy 41 5 30 -1.1 65 65 SW 8 13 30.34 1028 10 16 N/A
2:52 pm 14:52 Cloudy 41 5 30 -1.1 65 65 W 6 9 30.32 1027 10 16 N/A
3:19 pm 15:19 Cloudy 41 5 30 -1.1 65 65 W 3 6 30.33 1027 10 16 N/A
3:52 pm 15:52 Cloudy 41 5 30 -1.1 65 65 WNW 5 7 30.31 1027 10 16 N/A
4:52 pm 16:52 Cloudy 40 4.4 29 -1.7 65 65 N N/A 30.31 1026 10 16 N/A
5:52 pm 17:52 Cloudy 39 4 28 -2 65 65 NW 3 6 30.33 1027 10 16 N/A
6:52 pm 18:52 Cloudy 38 3.3 29 -1.7 70 70 NNW 6 9 30.31 1026 10 16 N/A
7:52 pm 19:52 Cloudy 36 2.2 29 -1.7 76 76 NNW 7 11 30.31 1026 10 16 N/A
8:52 pm 20:52 Cloudy 36 2.2 29 -1.7 76 76 N 5 7 30.30 1026 10 16 N/A
9:52 pm 21:52 Cloudy 36 2.2 29 -1.7 76 76 N N/A 30.30 1026 10 16 N/A
10:52 pm 22:52 Cloudy 37 2.8 29 -1.7 73 73 N N/A 30.29 1026 10 16 N/A
11:52 pm 23:52 Cloudy 36 2 28 -2 75 75 N N/A 30.33 1027 10 16 N/A

Powered by AerisWeather